Regional Weather Roundup
Issued by NWS

Home | Current Version | Previous Version | Graphics & Text | Print | Product List | Glossary Off
Versions: 1 2 3 4 5 6 7 8 9 10 11 12 13 14 15 16 17 18 19 20 21 22 23 24 25 26 27 28 29 30 31 32 33 34 35 36 37 38 39 40 41 42 43 44 45 46 47 48 49 50

844
ASUS43 KMPX 220410
RWRMN
WEATHER ROUNDUP FOR MINNESOTA
NATIONAL WEATHER SERVICE TWIN CITIES/CHANHASSEN MN
1100 PM CDT MON AUG 21 2017


NOTE: "FAIR" INDICATES FEW OR NO CLOUDS BELOW 12,000 FEET WITH NO
SIGNIFICANT WEATHER AND/OR OBSTRUCTIONS TO VISIBILITY. N/A MEANS
CURRENT SKY AND/OR WEATHER CONDITIONS ARE NOT AVAILABLE.

MNZ060>063-068>070-220500-
   Twin Cities Metro

CITY           SKY/WX    TMP DP  RH WIND       PRES   REMARKS
TWIN CITIES    CLOUDY    70  64  81 W14       29.87R
ST PAUL        MOCLDY    69  65  86 W9        29.86S
CRYSTAL        CLOUDY    68  62  81 W10       29.85R
BLAINE         PTCLDY    70  64  83 W9G16     29.86R
LAKEVILLE      MOCLDY    64  64 100 W8G17     29.88R
EDEN PRAIRIE   CLOUDY    69  65  86 W10G16    29.87R
SOUTH ST PAUL  CLOUDY    69  66  89 W7        29.86R
LAKE ELMO      CLOUDY    68  64  88 W9        29.87S
$$
MNZ001>005-007-008-013>017-022>024-027-028-220500-
   Northwest Minnesota

CITY           SKY/WX    TMP DP  RH WIND       PRES   REMARKS
BEMIDJI        MOCLDY    55  55 100 W5        29.92R
HALLOCK        CLEAR     54  52  94 NW3       29.97S
ROSEAU           N/A     55  50  82 NW5       29.95R
WARROAD        CLEAR     54  52  94 W6        29.94S
THIEF RVR FALL CLEAR     56  52  86 NW10      29.98R
CROOKSTON      CLEAR     57  54  88 N10       29.98R
FOSSTON        PTCLDY    54  54 100 NW8       29.95S
DETROIT LAKES  PTCLDY    61  55  82 NW12      29.96R
MOORHEAD       CLEAR     61  52  72 N13G20    29.99R
PARK RAPIDS    PTCLDY    60  58  92 NW13G18   29.92R
MAHNOMEN       FAIR      55  54  94 NW7       29.96R
$$
MNZ006-009>011-018-025>026-220500-
   North Central Minnesota

CITY           SKY/WX    TMP DP  RH WIND       PRES   REMARKS
BAUDETTE       MOCLDY    57  56  96 N6        29.90S
FLAG ISLAND    PTCLDY    57  55  94 W5        29.91S FOG
INTL FALLS     CLOUDY    52  50  93 NW5       29.88R
WASKISH        PTCLDY    57  57 100 NW10      29.90R
BIG FORK       PTCLDY    54  52  94 CALM      29.89R
LONGVILLE      CLOUDY    57  55  94 W3        29.90R
GRAND RAPIDS   CLOUDY    58  55  90 N5        29.90R
CRANE LAKE     CLOUDY    54  54 100 CALM      29.87S
ORR            CLOUDY    54  52  94 CALM      29.85R
COOK           CLOUDY    55  54  94 CALM      29.88R
WALKER         MOCLDY    57  56  96 CALM      29.91R
$$
MNZ012-019>021-037-220500-
   Northeast Minnesota

CITY           SKY/WX    TMP DP  RH WIND       PRES   REMARKS
DULUTH         TSTM      57  57 100 NE8       29.85R
ELY            LGT RAIN  55  54  94 CALM      29.86S
HIBBING        CLOUDY    55  54  96 NW6       29.87R
EVELETH        PTCLDY    58  53  84 N5        29.86S
DULUTH HARBOR  CLOUDY    61  57  88 N14       29.85R
TWO HARBORS    RAIN      59  54  82 CALM      29.83R
SILVER BAY     CLOUDY    57  55  94 CALM      29.82F
GRAND MARAIS     N/A     59  59 100 CALM      29.82F
G MARAIS ARPRT DRIZZLE   55  50  82 CALM      29.85F
$$
MNZ029>031-032-039>041-046>048-054>057-064-220500-
   West Central Minnesota

CITY           SKY/WX    TMP DP  RH WIND       PRES   REMARKS
FERGUS FALLS   PTCLDY    61  61 100 NW9       29.95R
WHEATON        CLEAR     63  55  77 W8        29.98S
MORRIS         CLEAR     64  59  82 NW12      29.94R
ALEXANDRIA     CLEAR     64  59  83 NW10      29.95R
ELBOW LAKE     FAIR      62  58  89 NW9       29.95S
WADENA         PTCLDY    61  57  88 NW5       29.92R
GLENWOOD       CLEAR     63  59  88 NW12      29.94R
APPLETON       CLEAR     63  57  82 NW7       29.95R
BENSON         CLEAR     64  59  82 N10G16    29.95S
ORTONVILLE     CLEAR     64  57  77 MISG      29.97R
MADISON        PTCLDY    64  64 100 W7        29.97R
WILLMAR        FAIR      64  63  94 W7        29.95R
$$
MNZ033>034-036-042>043-049>051-058-059-220500-
   Central Minnesota

CITY           SKY/WX    TMP DP  RH WIND       PRES   REMARKS
ST CLOUD       CLEAR     68  64  87 W13       29.87S
SAUK CENTRE    FAIR      62  60  90 W6        29.92R
PAYNESVILLE    CLEAR     61  60  96 W5        29.92R
AITKIN         MOCLDY    63  61  94 NW5       29.86S
PINE RIVER     PTCLDY    59  55  88 CALM      29.93R
BRAINERD       CLOUDY    63  60  90 NW8       29.88R
STAPLES        MOCLDY    63  59  88 NW7       29.92R
LONG PRAIRIE   FAIR      63  59  88 W12G20    29.92R
LITTLE FALLS   CLEAR     63  59  88 W7        29.89R
LITCHFIELD     CLEAR     66  64  94 W10G17    29.91R
BUFFALO        CLOUDY    66  63  87 SW3       29.89R
MAPLE LAKE     CLOUDY    67  64  92 W5        29.89S
HUTCHINSON     CLEAR     65  64  94 W6        29.92R
$$
MNZ037-044-045-052-053-220500-
   East Central Minnesota

CITY           SKY/WX    TMP DP  RH WIND       PRES   REMARKS
PRINCETON      CLOUDY    66  64  94 W8        29.86S
MORA           CLEAR     64  61  88 NW9       29.85F
CAMBRIDGE      CLOUDY    70  64  83 W6        29.85S
RUSH CITY      CLOUDY    66  63  89 W6        29.84S
MOOSE LAKE     LGT RAIN  64  61  88 W7        29.83R
HINCKLEY       MOCLDY    68  64  88 W9        29.83R
CLOQUET        LGT RAIN  61  57  88 N6        29.85R
MCGREGOR       CLOUDY    63  61  94 NW6       29.87R
$$
MNZ071>073-080-081-089-090-097-098-220500-
   Southwest Minnesota

CITY           SKY/WX    TMP DP  RH WIND       PRES   REMARKS
MONTEVIDEO     CLEAR     63  63 100 NW5       29.95R
GRANITE FALLS  CLEAR     65  63  94 W7        29.97R
CANBY          CLEAR     64  59  84 CALM      29.99R
MARSHALL       CLEAR     64  61  90 W9        29.97R
REDWOOD FALLS  CLEAR     66  62  87 W9        29.93R
OLIVIA         CLEAR     63  61  94 W8        29.93R
PIPESTONE      CLEAR     64  63  94 W5        30.01R
WINDOM         PTCLDY    64  63  94 W6        29.96S
WORTHINGTON    PTCLDY    63  62  97 W8        29.98S
JACKSON        MOCLDY    63  61  94 W6        29.97S
TRACY          CLEAR     66  65  96 W6        29.98R
SLAYTON        CLOUDY    64  60  87 W9        30.00R
$$
MNZ065>067-074>077-082>085-091>093-220500-
   South Central Minnesota

CITY           SKY/WX    TMP DP  RH WIND       PRES   REMARKS
MANKATO        MOCLDY    66  63  90 W10       29.92R
NEW ULM        PTCLDY    64  63  94 W9        29.92S
ST JAMES         N/A     66  63  88 W9        29.94S
FAIRMONT       MOCLDY    65  62  90 NW8       29.94
GLENCOE        PTCLDY    67  66  97 W7        29.90S
FARIBAULT      CLOUDY    66  64  94 W12       29.91R
OWATONNA       CLOUDY    64  63  94 SW6       29.91S
WASECA         CLOUDY    63  61  94 W6        29.93F
ALBERT LEA     CLOUDY    66  64  94 CALM      29.92F
$$
MNZ078>079-086>088-094>096-220500-
   Southeast Minnesota

CITY           SKY/WX    TMP DP  RH WIND       PRES   REMARKS
ROCHESTER      CLOUDY    63  63 100 W8        29.93R
RED WING       CLOUDY    66  63  88 W7        29.86F
STANTON        MOCLDY    68  63  84 W8        29.88R
DODGE CENTER   CLOUDY    64  61  88 W12G17    29.91F
WINONA         CLOUDY    70  64  83 W3        29.89F
AUSTIN         CLOUDY    64  61  88 W6        29.92F
PRESTON        CLOUDY    64  62  94 W5        29.94R
$$
ABBREVIATIONS USED IN REMARKS
   TC - TEMPERATURES IN CELSIUS
  WCI - WIND CHILL INDEX
   HX - HEAT INDEX
  VSB - VISIBILITY
$$




USA.gov is the U.S. government's official web portal to all federal, state and local government web resources and services.